Home > Weather > Kodiak > Past weeks

Flag for USA Weather for the Past 2 Weeks in Kodiak, Alaska, USA

Now
44 °F

Mostly cloudy.


Feels Like: 39 °F
Forecast: 40 / 47 °F
Wind: 10 mph from Southeast

Location: Kodiak Weather Reporting Station

Current Time: May 5, 2016 at 10:31:33 PM

Latest Report: May 5, 2016 at 9:53 PM


Visibility: 10 mi

Pressure: 29.33 "Hg

Humidity: 82%

Dew Point: 39 °F

Location of KodiakLocation

Historic Weather in Kodiak — Graph

°F

Kodiak Temperature Yesterday

Maximum temperature yesterday: 48 °F (at 5:53 PM)
Minimum temperature yesterday: 37 °F (at 4:53 AM)
Average temperature yesterday: 43 °F

High & Low Weather Summary for the Past Weeks

 TemperatureHumidityPressure
High49 °F (Apr 22, 12:53 PM)100% (Apr 23, 2:53 AM)29.88 "Hg (Apr 23, 2:53 AM)
Low32 °F (Apr 26, 5:53 AM)66% (Apr 26, 1:53 PM)29.13 "Hg (Apr 30, 2:53 PM)
Average43 °F86%29.57 "Hg
* Reported Apr 20 8:53 PM — May 5 8:53 PM, Kodiak, Weather by CustomWeather, © 2016

Note: Actual official high and low records may vary slightly from our data, if they occured in-between our weather recording intervals... More about our weather records

Advertising

Kodiak Weather History for the Previous 24 Hours

Scroll right to see more
 ConditionsComfort  
Time TempWeatherWind HumidityBarometerVisibility
8:53 PM
Thu, May 5
45 °FOvercast.16 mph90%29.30 "Hg10 mi
7:53 PM46 °FMore clouds than sun.5 mph96%29.28 "Hg7 mi
6:53 PM45 °FLow clouds.12 mph100%29.28 "Hg8 mi
6:04 PM45 °FFog.10 mph100%29.28 "Hg6 mi
5:57 PM45 °FFog.12 mph100%29.28 "Hg3 mi
4:53 PM46 °FLight rain. Fog.18 mph96%29.29 "Hg1 mi
3:53 PM46 °FLight rain. Fog.17 mph96%29.31 "Hg4 mi
3:03 PM46 °FLight rain. Fog.20 mph93%29.34 "Hg2 mi
1:53 PM44 °FRain. Fog.25 mph96%29.36 "Hg3 mi
12:53 PM44 °FLight rain. Fog.28 mph93%29.41 "Hg2 mi
11:53 AM43 °FRain. Fog.30 mph93%29.45 "Hg3 mi
10:53 AM43 °FRain. Fog.26 mph89%29.49 "Hg5 mi
9:53 AM42 °FRain. Fog.26 mph92%29.52 "Hg5 mi
8:53 AM42 °FRain. Fog.24 mph89%29.57 "Hg5 mi
7:53 AM41 °FRain. Fog.25 mph93%29.60 "Hg6 mi
6:56 AM41 °FLight rain. Fog.22 mph93%29.63 "Hg5 mi
5:53 AM41 °FLight rain. Mostly cloudy.21 mph86%29.67 "Hg10 mi
4:53 AM43 °FLight rain. Overcast.22 mph79%29.69 "Hg10 mi
3:53 AM43 °FMostly cloudy.17 mph79%29.71 "Hg10 mi
2:53 AM42 °FMostly cloudy.16 mph85%29.74 "Hg10 mi
2:00 AM44 °FPassing clouds.14 mph79%29.76 "Hg10 mi
12:53 AM43 °FPassing clouds.6 mph79%29.77 "Hg10 mi
11:53 PM
Wed, May 4
43 °FPassing clouds.7 mph79%29.78 "Hg10 mi
10:53 PM44 °FPartly sunny.8 mph82%29.78 "Hg10 mi
Weather by CustomWeather, © 2016

See weather overviewHow to use our weather pages